HISTORICAL SENSOR DATA

Sensor Data Report

DB LIVE
CURRENT TIME--:--:--
DEVICE NETWORK Gateway Status
13 ESP · realtime ~1s · history 60s
Weather WS-MOD-01
ONLINE
Actuator ACT-MOD-01
OFFLINE
Mainboard L3 MB-L3-01
ONLINE
Mainboard L5 MB-L5-01
ONLINE
Remote AC AC-REMOTE-01
ONLINE
PZEM L3-01 PWR-L3-01
OFFLINE
PZEM L3-02 PWR-L3-02
OFFLINE
PZEM L3-03 PWR-L3-03
OFFLINE
PZEM L3-04 PWR-L3-04
OFFLINE
PZEM L5-01 PWR-L5-01
ONLINE
PZEM L5-02 PWR-L5-02
ONLINE
PZEM L5-03 PWR-L5-03
OFFLINE
PZEM L5-04 PWR-L5-04
OFFLINE
REPORT FILTER

Periode & Sensor

DATABASE HISTORY
RESET
QUICK RANGE Hari ini 7 hari 30 hari
PERIODE08 Aug 2026sampai 06 Sep 2026
TOTAL DATA67,817sensor readings
MINIMUM-0.50sesuai filter
AVERAGE84.86sesuai filter
MAXIMUM32,564.20sesuai filter
REPORT RESULT

Data Sensor

08/08/2026 — 06/09/2026 EXPORT CSV
NOTANGGALWAKTUDEVICECHANNELSENSORVALUEUNIT
201 06/09/2026 23:57:00 PWR-L5-02Power Meter L5 PZEM 02 PZEM-L5-02-POWER PZEM L5-02 Active Power 0.00 W
202 06/09/2026 23:56:00 MB-L5-01Mainboard Lantai 5 L5-ST-02 Surface Temperature 2 23.20 °C
203 06/09/2026 23:56:00 MB-L5-01Mainboard Lantai 5 L5-SHT-01-RH SHT20 1 Humidity 45.80 %RH
204 06/09/2026 23:56:00 PWR-L5-02Power Meter L5 PZEM 02 PZEM-L5-02-CURR PZEM L5-02 Current 0.00 A
205 06/09/2026 23:56:00 MB-L3-01Mainboard Lantai 3 L3-LUX-06 Illuminance / LUX 6 0.30 lux
206 06/09/2026 23:56:00 WS-MOD-01Weather Station Module WS-PRES Tekanan Udara 912.00 hPa
207 06/09/2026 23:56:00 MB-L5-01Mainboard Lantai 5 L5-SHT-02-T SHT20 2 Temperature 29.10 °C
208 06/09/2026 23:56:00 MB-L3-01Mainboard Lantai 3 L3-LUX-04 Illuminance / LUX 4 0.10 lux
209 06/09/2026 23:56:00 AC-REMOTE-01Remote AC AC-SETPOINT AC Set Temperature 23.00 °C
210 06/09/2026 23:56:00 PWR-L5-01Power Meter L5 PZEM 01 PZEM-L5-01-POWER PZEM L5-01 Active Power 10.40 W
211 06/09/2026 23:56:00 MB-L3-01Mainboard Lantai 3 L3-AI-01 Analog Input 1 3.12 V
212 06/09/2026 23:56:00 MB-L5-01Mainboard Lantai 5 L5-SHT-03-RH SHT20 3 Humidity 45.50 %RH
213 06/09/2026 23:56:00 MB-L3-01Mainboard Lantai 3 L3-SHT-02-RH SHT20 2 Humidity 44.90 %RH
214 06/09/2026 23:56:00 MB-L5-01Mainboard Lantai 5 L5-SHT-01-T SHT20 1 Temperature 28.80 °C
215 06/09/2026 23:56:00 MB-L3-01Mainboard Lantai 3 L3-SHT-03-RH SHT20 3 Humidity 45.10 %RH
216 06/09/2026 23:56:00 MB-L5-01Mainboard Lantai 5 L5-LUX-03 Illuminance / LUX 3 0.10 lux
217 06/09/2026 23:56:00 MB-L5-01Mainboard Lantai 5 L5-SHT-03-T SHT20 3 Temperature 28.90 °C
218 06/09/2026 23:56:00 MB-L3-01Mainboard Lantai 3 L3-AI-06 Analog Input 6 3.12 V
219 06/09/2026 23:56:00 MB-L5-01Mainboard Lantai 5 L5-AI-03 Analog Input 3 3.05 V
220 06/09/2026 23:56:00 MB-L5-01Mainboard Lantai 5 L5-SHT-02-RH SHT20 2 Humidity 45.10 %RH
221 06/09/2026 23:56:00 PWR-L5-02Power Meter L5 PZEM 02 PZEM-L5-02-FREQ PZEM L5-02 Frequency 50.00 Hz
222 06/09/2026 23:56:00 MB-L3-01Mainboard Lantai 3 L3-RAD-01 Radiation 1 1.00 W/m²
223 06/09/2026 23:56:00 PWR-L5-01Power Meter L5 PZEM 01 PZEM-L5-01-ENERGY PZEM L5-01 Energy 0.06 kWh
224 06/09/2026 23:56:00 MB-L5-01Mainboard Lantai 5 L5-BGT-02 Black Globe Temperature 2 26.80 °C
225 06/09/2026 23:56:00 PWR-L5-02Power Meter L5 PZEM 02 PZEM-L5-02-VOLT PZEM L5-02 Voltage 224.50 V
226 06/09/2026 23:56:00 MB-L5-01Mainboard Lantai 5 L5-AI-06 Analog Input 6 3.05 V
227 06/09/2026 23:56:00 AC-REMOTE-01Remote AC AC-POWER AC Power State 1.00 state
228 06/09/2026 23:56:00 MB-L3-01Mainboard Lantai 3 L3-AI-04 Analog Input 4 3.12 V
229 06/09/2026 23:56:00 MB-L3-01Mainboard Lantai 3 L3-LUX-05 Illuminance / LUX 5 0.30 lux
230 06/09/2026 23:56:00 MB-L5-01Mainboard Lantai 5 L5-RAD-02 Radiation 2 1.00 W/m²
231 06/09/2026 23:56:00 MB-L5-01Mainboard Lantai 5 L5-HFT-01 Heat Flow Temperature 1 23.90 °C
232 06/09/2026 23:56:00 MB-L5-01Mainboard Lantai 5 L5-LUX-04 Illuminance / LUX 4 0.10 lux
233 06/09/2026 23:56:00 WS-MOD-01Weather Station Module WS-RH Kelembapan Udara 77.80 %RH
234 06/09/2026 23:56:00 MB-L5-01Mainboard Lantai 5 L5-RAD-01 Radiation 1 1.00 W/m²
235 06/09/2026 23:56:00 MB-L5-01Mainboard Lantai 5 L5-AI-01 Analog Input 1 3.05 V
236 06/09/2026 23:56:00 MB-L5-01Mainboard Lantai 5 L5-LUX-02 Illuminance / LUX 2 0.10 lux
237 06/09/2026 23:56:00 PWR-L5-01Power Meter L5 PZEM 01 PZEM-L5-01-FREQ PZEM L5-01 Frequency 50.00 Hz
238 06/09/2026 23:56:00 PWR-L5-02Power Meter L5 PZEM 02 PZEM-L5-02-ENERGY PZEM L5-02 Energy 0.04 kWh
239 06/09/2026 23:56:00 MB-L3-01Mainboard Lantai 3 L3-LUX-01 Illuminance / LUX 1 0.20 lux
240 06/09/2026 23:56:00 MB-L5-01Mainboard Lantai 5 L5-LUX-06 Illuminance / LUX 6 0.10 lux
241 06/09/2026 23:56:00 MB-L3-01Mainboard Lantai 3 L3-AI-02 Analog Input 2 3.12 V
242 06/09/2026 23:56:00 MB-L5-01Mainboard Lantai 5 L5-AI-04 Analog Input 4 3.05 V
243 06/09/2026 23:56:00 MB-L3-01Mainboard Lantai 3 L3-SHT-01-RH SHT20 1 Humidity 45.70 %RH
244 06/09/2026 23:56:00 MB-L3-01Mainboard Lantai 3 L3-LUX-03 Illuminance / LUX 3 0.20 lux
245 06/09/2026 23:56:00 PWR-L5-01Power Meter L5 PZEM 01 PZEM-L5-01-PF PZEM L5-01 Power Factor 0.38
246 06/09/2026 23:56:00 MB-L3-01Mainboard Lantai 3 L3-SHT-03-T SHT20 3 Temperature 29.10 °C
247 06/09/2026 23:56:00 WS-MOD-01Weather Station Module WS-TEMP Suhu Udara 19.60 °C
248 06/09/2026 23:56:00 AC-REMOTE-01Remote AC AC-FAN AC Fan Speed 0.00 code
249 06/09/2026 23:56:00 MB-L5-01Mainboard Lantai 5 L5-BGT-03 Black Globe Temperature 3 26.40 °C
250 06/09/2026 23:56:00 MB-L5-01Mainboard Lantai 5 L5-ST-01 Surface Temperature 1 24.00 °C
251 06/09/2026 23:56:00 MB-L5-01Mainboard Lantai 5 L5-LUX-01 Illuminance / LUX 1 0.00 lux
252 06/09/2026 23:56:00 WS-MOD-01Weather Station Module WS-DIR Arah Angin 82.30 °
253 06/09/2026 23:56:00 MB-L3-01Mainboard Lantai 3 L3-RAD-02 Radiation 2 0.00 W/m²
254 06/09/2026 23:56:00 MB-L3-01Mainboard Lantai 3 L3-AI-05 Analog Input 5 3.12 V
255 06/09/2026 23:56:00 MB-L5-01Mainboard Lantai 5 L5-HFT-02 Heat Flow Temperature 2 23.00 °C
256 06/09/2026 23:56:00 MB-L3-01Mainboard Lantai 3 L3-LUX-02 Illuminance / LUX 2 0.20 lux
257 06/09/2026 23:56:00 PWR-L5-02Power Meter L5 PZEM 02 PZEM-L5-02-POWER PZEM L5-02 Active Power 0.00 W
258 06/09/2026 23:56:00 MB-L5-01Mainboard Lantai 5 L5-AI-02 Analog Input 2 3.05 V
259 06/09/2026 23:56:00 PWR-L5-01Power Meter L5 PZEM 01 PZEM-L5-01-VOLT PZEM L5-01 Voltage 224.60 V
260 06/09/2026 23:56:00 AC-REMOTE-01Remote AC AC-MODE AC Operating Mode 1.00 code
261 06/09/2026 23:56:00 MB-L3-01Mainboard Lantai 3 L3-SHT-01-T SHT20 1 Temperature 28.70 °C
262 06/09/2026 23:56:00 MB-L3-01Mainboard Lantai 3 L3-SHT-02-T SHT20 2 Temperature 29.00 °C
263 06/09/2026 23:56:00 PWR-L5-02Power Meter L5 PZEM 02 PZEM-L5-02-PF PZEM L5-02 Power Factor 0.00
264 06/09/2026 23:56:00 MB-L5-01Mainboard Lantai 5 L5-BGT-01 Black Globe Temperature 1 26.70 °C
265 06/09/2026 23:56:00 MB-L5-01Mainboard Lantai 5 L5-AI-05 Analog Input 5 3.05 V
266 06/09/2026 23:56:00 MB-L3-01Mainboard Lantai 3 L3-AI-03 Analog Input 3 3.12 V
267 06/09/2026 23:56:00 WS-MOD-01Weather Station Module WS-WIND Kecepatan Angin 5.34 m/s
268 06/09/2026 23:56:00 PWR-L5-01Power Meter L5 PZEM 01 PZEM-L5-01-CURR PZEM L5-01 Current 0.12 A
269 06/09/2026 23:55:00 MB-L3-01Mainboard Lantai 3 L3-RAD-01 Radiation 1 1.00 W/m²
270 06/09/2026 23:55:00 PWR-L5-01Power Meter L5 PZEM 01 PZEM-L5-01-ENERGY PZEM L5-01 Energy 0.06 kWh
271 06/09/2026 23:55:00 MB-L5-01Mainboard Lantai 5 L5-BGT-02 Black Globe Temperature 2 26.80 °C
272 06/09/2026 23:55:00 PWR-L5-02Power Meter L5 PZEM 02 PZEM-L5-02-VOLT PZEM L5-02 Voltage 224.50 V
273 06/09/2026 23:55:00 MB-L5-01Mainboard Lantai 5 L5-AI-06 Analog Input 6 3.05 V
274 06/09/2026 23:55:00 AC-REMOTE-01Remote AC AC-POWER AC Power State 1.00 state
275 06/09/2026 23:55:00 MB-L3-01Mainboard Lantai 3 L3-AI-04 Analog Input 4 3.12 V
276 06/09/2026 23:55:00 MB-L3-01Mainboard Lantai 3 L3-LUX-05 Illuminance / LUX 5 0.30 lux
277 06/09/2026 23:55:00 MB-L5-01Mainboard Lantai 5 L5-RAD-02 Radiation 2 1.00 W/m²
278 06/09/2026 23:55:00 MB-L5-01Mainboard Lantai 5 L5-HFT-01 Heat Flow Temperature 1 23.80 °C
279 06/09/2026 23:55:00 MB-L5-01Mainboard Lantai 5 L5-LUX-04 Illuminance / LUX 4 0.10 lux
280 06/09/2026 23:55:00 WS-MOD-01Weather Station Module WS-RH Kelembapan Udara 77.70 %RH
281 06/09/2026 23:55:00 MB-L5-01Mainboard Lantai 5 L5-RAD-01 Radiation 1 1.00 W/m²
282 06/09/2026 23:55:00 MB-L5-01Mainboard Lantai 5 L5-AI-01 Analog Input 1 3.05 V
283 06/09/2026 23:55:00 MB-L5-01Mainboard Lantai 5 L5-LUX-02 Illuminance / LUX 2 0.10 lux
284 06/09/2026 23:55:00 PWR-L5-01Power Meter L5 PZEM 01 PZEM-L5-01-FREQ PZEM L5-01 Frequency 50.00 Hz
285 06/09/2026 23:55:00 PWR-L5-02Power Meter L5 PZEM 02 PZEM-L5-02-ENERGY PZEM L5-02 Energy 0.04 kWh
286 06/09/2026 23:55:00 MB-L3-01Mainboard Lantai 3 L3-LUX-01 Illuminance / LUX 1 0.20 lux
287 06/09/2026 23:55:00 MB-L5-01Mainboard Lantai 5 L5-LUX-06 Illuminance / LUX 6 0.10 lux
288 06/09/2026 23:55:00 MB-L3-01Mainboard Lantai 3 L3-AI-02 Analog Input 2 3.12 V
289 06/09/2026 23:55:00 MB-L5-01Mainboard Lantai 5 L5-AI-04 Analog Input 4 3.05 V
290 06/09/2026 23:55:00 MB-L3-01Mainboard Lantai 3 L3-SHT-01-RH SHT20 1 Humidity 45.70 %RH
291 06/09/2026 23:55:00 MB-L3-01Mainboard Lantai 3 L3-LUX-03 Illuminance / LUX 3 0.20 lux
292 06/09/2026 23:55:00 PWR-L5-01Power Meter L5 PZEM 01 PZEM-L5-01-PF PZEM L5-01 Power Factor 0.39
293 06/09/2026 23:55:00 MB-L3-01Mainboard Lantai 3 L3-SHT-03-T SHT20 3 Temperature 29.00 °C
294 06/09/2026 23:55:00 WS-MOD-01Weather Station Module WS-TEMP Suhu Udara 19.60 °C
295 06/09/2026 23:55:00 AC-REMOTE-01Remote AC AC-FAN AC Fan Speed 0.00 code
296 06/09/2026 23:55:00 MB-L5-01Mainboard Lantai 5 L5-BGT-03 Black Globe Temperature 3 26.50 °C
297 06/09/2026 23:55:00 MB-L5-01Mainboard Lantai 5 L5-LUX-05 Illuminance / LUX 5 0.10 lux
298 06/09/2026 23:55:00 MB-L5-01Mainboard Lantai 5 L5-ST-01 Surface Temperature 1 24.00 °C
299 06/09/2026 23:55:00 MB-L5-01Mainboard Lantai 5 L5-LUX-01 Illuminance / LUX 1 0.00 lux
300 06/09/2026 23:55:00 WS-MOD-01Weather Station Module WS-DIR Arah Angin 90.10 °
Menampilkan maksimal 100 data per halaman